FW4264 Weather Reports


Display with metric or nautical units.
time (UTC)temp
F
wind
direction
speed
MPH
gust
MPH
rain 1hr
in
rain 24hr
in
rain mn
in
humidity
%
barometer
mb
20260505164531 64 304 3.0 7.0 0.00 0.00 0.00 64 1014.4
20260505163029 64 310 3.0 10.0 0.00 0.00 0.00 64 1014.4
20260505161532 63 308 3.0 7.0 0.00 0.00 0.00 65 1014.4
20260505160108 63 301 3.0 8.0 0.00 0.00 0.00 65 1014.4
20260505151603 62 20 0.0 2.0 0.00 0.00 0.00 70 1014.0
20260505124531 60 79 0.0 3.0 0.00 0.00 0.00 69 1012.5
20260505121530 62 6 0.0 4.0 0.00 0.00 0.00 66 1012.3
20260505120145 62 69 0.0 4.0 0.00 0.00 0.00 65 1012.2
20260505114528 62 294 0.0 7.0 0.00 0.00 0.00 64 1012.2
20260505113034 62 152 0.0 3.0 0.00 0.00 0.00 65 1012.1
20260505101531 64 316 1.0 5.0 0.00 0.00 0.00 63 1011.4
20260505100035 64 57 0.0 3.0 0.00 0.00 0.00 63 1011.4
20260505094530 64 72 0.0 3.0 0.00 0.00 0.00 62 1011.3
20260505093032 65 333 1.0 8.0 0.00 0.00 0.00 62 1011.3
20260505091530 65 70 0.0 5.0 0.00 0.00 0.00 61 1011.2
20260505090037 0 0 0.0 0.0 0.00 0.00 0.00 100
20260505084532 65 69 0.0 2.0 0.00 0.00 0.00 62 1011.0
20260505080032 67 6 0.0 7.0 0.00 0.00 0.00 59 1010.9
20260505074530 67 35 0.0 5.0 0.00 0.00 0.00 59 1010.8
20260505073032 68 243 0.0 6.0 0.00 0.00 0.00 58 1010.7
20260505071531 67 302 1.0 6.0 0.00 0.00 0.00 58 1010.6
20260505070146 68 11 1.0 6.0 0.00 0.00 0.00 57 1010.5
20260505064529 68 44 0.0 5.0 0.00 0.00 0.00 56 1010.5
20260505063107 68 11 0.0 6.0 0.00 0.00 0.00 56 1010.3
20260505061530 68 358 0.0 6.0 0.00 0.00 0.00 54 1010.2
20260505060030 69 94 0.0 4.0 0.00 0.00 0.00 52 1010.2
20260505054645 69 213 1.0 7.0 0.00 0.00 0.00 52 1010.1
20260505053040 70 226 0.0 7.0 0.00 0.00 0.00 51 1009.9
20260505051535 70 193 1.0 6.0 0.00 0.00 0.00 50 1009.8
20260505041530 72 105 1.0 4.0 0.00 0.00 0.00 45 1009.4
20260505040044 72 156 0.0 5.0 0.00 0.00 0.00 44 1009.2
20260505034528 72 66 0.0 6.0 0.00 0.00 0.00 45 1008.9
20260505033107 72 210 0.0 7.0 0.00 0.00 0.00 45 1008.7
20260505031531 73 222 0.0 5.0 0.00 0.00 0.00 44 1008.7
20260505030032 74 164 0.0 7.0 0.00 0.00 0.00 43 1008.5
20260505024605 75 214 1.0 6.0 0.00 0.00 0.00 42 1008.3
20260505023031 76 171 0.0 4.0 0.00 0.00 0.00 41 1008.2
20260505021530 77 172 0.0 3.0 0.00 0.00 0.00 39 1008.2
20260505020033 78 213 1.0 5.0 0.00 0.00 0.00 38 1008.2
20260505013031 80 267 1.0 10.0 0.00 0.00 0.00 36 1008.1
20260505011531 81 301 2.0 8.0 0.00 0.00 0.00 35 1008.1
20260505004529 82 297 2.0 9.0 0.00 0.00 0.00 36 1008.0
20260505003031 82 291 3.0 9.0 0.00 0.00 0.00 36 1008.0
20260505000034 82 302 4.0 10.0 0.00 0.00 0.00 36 1008.1
20260504234531 83 301 5.0 13.0 0.00 0.00 0.00 36 1008.1
20260504233031 83 295 3.0 10.0 0.00 0.00 0.00 37 1008.1
20260504231531 83 293 4.0 11.0 0.00 0.00 0.00 36 1008.3
20260504230030 83 291 4.0 10.0 0.00 0.00 0.00 36 1008.5
20260504224608 83 303 4.0 11.0 0.00 0.00 0.00 35 1008.6
20260504223031 83 310 4.0 10.0 0.00 0.00 0.00 35 1008.7
20260504220030 83 291 3.0 8.0 0.00 0.00 0.00 36 1009.0
20260504214531 83 304 4.0 9.0 0.00 0.00 0.00 35 1009.1
20260504211531 83 302 3.0 10.0 0.00 0.00 0.00 34 1009.5
20260504210031 83 303 3.0 8.0 0.00 0.00 0.00 34 1009.6
20260504204530 83 300 3.0 8.0 0.00 0.00 0.00 35 1009.7
20260504203031 83 305 3.0 7.0 0.00 0.00 0.00 36 1009.9
20260504201529 82 300 3.0 6.0 0.00 0.00 0.00 36 1010.1
20260504194531 81 306 4.0 9.0 0.00 0.00 0.00 37 1010.2
20260504193031 80 306 4.0 11.0 0.00 0.00 0.00 37 1010.3
20260504191531 79 310 4.0 11.0 0.00 0.00 0.00 37 1010.4
20260504190106 79 310 4.0 10.0 0.00 0.00 0.00 38 1010.4
20260504184531 78 305 3.0 8.0 0.00 0.00 0.00 39 1010.5
20260504183030 77 312 3.0 9.0 0.00 0.00 0.00 41 1010.5
20260504181530 77 302 3.0 9.0 0.00 0.00 0.00 42 1010.5
20260504180106 76 355 2.0 4.0 0.00 0.00 0.00 45 1010.5
20260504174608 74 47 1.0 3.0 0.00 0.00 0.00 49 1010.5
20260504173030 71 45 0.0 2.0 0.00 0.00 0.00 53 1010.6
20260504171529 69 57 0.0 2.0 0.00 0.00 0.00 55 1010.8